Flag for Norway Weather past 2 weeks in Fevik, Norway

Now
62 °F

Cool.


Feels Like: 62 °F
Forecast: 55 / 64 °F
Wind: 6 mph from West

Location: Torungen Fyr

Current Time: Jul 30, 2015 at 5:08:23 PM

Latest Report: Jul 30, 2015 at 4:00 PM


Visibility: N/A

Pressure: 29.59 "Hg

Humidity: 84%

Dew point: 57 °F

Location of FevikLocation

Historic Weather in Fevik — Graph

°F

Fevik temperature yesterday

Maximum temperature yesterday: 60 °F (at 6:00 PM)
Minimum temperature yesterday: 56 °F (at 4:00 AM)
Average temperature yesterday: 58 °F

Past Weeks' High & Low Weather Summary

 TemperatureHumidityPressure
High72 °F (Jul 15, 5:00 PM)96% (Jul 18, 3:00 AM)30.07 "Hg (Jul 18, 3:00 AM)
Low52 °F (Jul 27, 7:00 AM)26% (Jul 16, 5:00 PM)29.32 "Hg (Jul 29, 7:00 AM)
Average58 °F76%29.68 "Hg
* Reported Jul 15 3:00 PM — Jul 30 3:00 PM, Fevik, Weather by CustomWeather, © 2015

Note: Actual official high and low records may vary slightly from our data, if they occured in-between our weather recording intervals... More about our weather records

Advertising

Fevik weather history for previous 24 hours

 ConditionsComfort  
Time TempWeatherWind HumidityBarometerVisibility
3:00 PM
Thu, Jul 30
63 °FMild.8 mph82%29.59 "HgN/A
2:00 PM63 °FMild.7 mph77%29.58 "HgN/A
1:00 PM64 °FMild.5 mph78%29.57 "HgN/A
12:00 PM64 °FMild.5 mph75%29.56 "HgN/A
11:00 AM63 °FMild.2 mph79%29.55 "HgN/A
10:00 AM63 °FMild.2 mph78%29.54 "HgN/A
9:00 AM61 °FCool.3 mph81%29.50 "HgN/A
8:00 AM59 °FCool.2 mph89%29.50 "HgN/A
7:00 AM57 °FCool.3 mph92%29.50 "HgN/A
6:00 AM57 °FCool.3 mph91%29.47 "HgN/A
5:00 AM57 °FCool.3 mph94%29.47 "HgN/A
4:00 AM57 °FCool.3 mph94%29.47 "HgN/A
3:00 AM57 °FCool.2 mph94%29.47 "HgN/A
2:00 AM57 °FCool.3 mph94%29.47 "HgN/A
1:00 AM57 °FCool.3 mph93%29.47 "HgN/A
12:00 AM57 °FCool.2 mph92%29.44 "HgN/A
11:00 PM
Wed, Jul 29
58 °FCool.No wind85%29.44 "HgN/A
10:00 PM59 °FCool.1 mph85%29.44 "HgN/A
9:00 PM59 °FCool.1 mph87%29.41 "HgN/A
8:00 PM59 °FCool.2 mph86%29.41 "HgN/A
7:00 PM60 °FCool.3 mph86%29.38 "HgN/A
6:00 PM60 °FCool.2 mph88%29.38 "HgN/A
5:00 PM59 °FCool.3 mph87%29.38 "HgN/A
Weather by CustomWeather, © 2015

See weather overviewHow to use our weather pages